Location: Crescent
(42.8242°N, 73.7329°W)
Time: 03:12:07
(UTC+00:00)

Transit 4A - Pass Details

Date: 20 February 2026
Orbit: 864 x 977 km, 66.8° (Epoch: 7 March)

Event Time Altitude Azimuth Distance (km) Brightness Sun altitude
Rises 14:50:27 0° 336° (NNW) 3,591 10.4 27.8°
Reaches altitude 10° 14:53:57 10° 355° (N) 2,667 9.9 28.2°
Maximum altitude 14:57:59 18° 36° (NE) 2,191 9.8 28.7°
Drops below altitude 10° 15:02:03 10° 77° (ENE) 2,703 10.7 29.1°
Sets 15:05:37 0° 96° (E) 3,660 11.6 29.5°
